Location: Silverdale
(47.6506°N, 122.6941°W)
Time: 06:49:48
(UTC+00:00)

Tiros 1 despin weight - Pass Details

Date: 10 October 2022
Orbit: 590 x 637 km, 48.2° (Epoch: 09 December)

Event Time Altitude Azimuth Distance (km) Brightness Sun altitude
Rises 04:08:27 0° 280° (W) 2,881 ? -26.5°
Reaches altitude 10° 04:11:39 10° 256° (WSW) 1,983 ? -27.0°
Maximum altitude 04:14:08 15° 223° (SW) 1,701 ? -27.4°
Enters shadow 04:14:51 14° 212° (SSW) 1,727 ? -27.5°
